Location: Byhalia Creek
(34.8270°N, 89.8040°W)
Time: 16:58:37
(UTC+00:00)

Cosmos 2322 Rocket - Pass Details

Date: 22 April 2026
Orbit: 832 x 849 km, 71.0° (Epoch: 9 May)

Event Time Altitude Azimuth Distance (km) Brightness Sun altitude
Rises 07:50:59 0° 350° (N) 3,393 5.9 -35.8°
Reaches altitude 10° 07:53:46 10° 2° (N) 2,458 5.2 -35.5°
Maximum altitude 07:58:36 28° 61° (ENE) 1,516 3.9 -34.9°
Enters shadow 08:01:19 20° 103° (ESE) 1,872 4.2 -34.6°
